FLOCK 1E-6

Last updated on July 21, 2016, 1:37 a.m. UTC

1 40729U 98067GM  16202.94824483  .87005214  12670-4  39272-3 0  9998
2 40729  51.5890 194.7247 0013262 168.5360 192.8102 16.55509029 58579

Satellite is not in orbit.